Weather History for Marianna, FL

Change the Weather History Date:

Tuesday, February 19, 2013

  Actual Average Record
Temperature  
Mean Temperature 54 °F 55 °F  
Max Temperature 67 °F 67 °F 81 °F (2000)
Min Temperature 41 °F 44 °F 26 °F (2007)
Degree Days  
Heating Degree Days 11    
Month to date heating degree days 209  
Since 1 July heating degree days 935  
Cooling Degree Days 0    
Month to date cooling degree days 5  
Year to date cooling degree days 58  
Growing Degree Days 5 (Base 50)    
Moisture  
Dew Point 51 °F    
Average Humidity 75    
Maximum Humidity 93    
Minimum Humidity 56    
Precipitation  
Precipitation 0.15 in 0.19 in 0.70 in (2009)
Month to date precipitation 2.95 3.24  
Year to date precipitation 3.91 8.28  
Sea Level Pressure  
Sea Level Pressure 30.09 in    
Wind  
Wind Speed 7 mph (WSW)    
Max Wind Speed 16 mph    
Max Gust Speed 21 mph    
Visibility 8 miles    
Events Rain    
T = Trace of Precipitation, MM = Missing Value Source: NWS Daily Summary

Daily Weather History Graph

Daily Weather History Graph

Search for Another Location

Airport:

Trip Planner

Search our weather history database for the weather conditions in past years. The results will help you decide how hot, cold, wet, or windy it might be!

Date:

Astronomy

Feb. 19, 2013 Rise Set
Actual Time 6:17 AM CST 5:31 PM CST
Civil Twilight 5:52 AM CST 5:56 PM CST
Nautical Twilight 5:24 AM CST 6:24 PM CST
Astronomical Twilight 4:56 AM CST 6:52 PM CST
Moon 12:14 PM CST (2/19) 1:36 AM CST (2/19)
Length of Visible Light 12h 03m
Length of Day
11h 14m
Waxing Gibbous, 67% of the Moon is Illuminated
Feb 19
Waxing Gibbous
Feb 25
Full
Mar 4
Last Quarter
Mar 11
New
Mar 19
First Quarter

Hourly Weather History & Observations

Time (CST) Temp. Windchill Dew Point Humidity Pressure Visibility Wind Dir Wind Speed Gust Speed Precip Events Conditions
12:53 AM 44.1 °F 41.5 °F 33.1 °F 65% 30.12 in 10.0 mi SE 4.6 mph - N/A   Clear
1:53 AM 46.0 °F 43.1 °F 37.0 °F 71% 30.10 in 10.0 mi SSE 5.8 mph - N/A   Partly Cloudy
2:53 AM 50.0 °F - 42.1 °F 74% 30.09 in 10.0 mi Variable 3.5 mph - N/A   Overcast
3:53 AM 50.0 °F - 44.1 °F 80% 30.06 in 10.0 mi SSE 3.5 mph - N/A   Overcast
4:53 AM 52.0 °F - 46.9 °F 83% 30.06 in 10.0 mi SSE 8.1 mph - N/A   Partly Cloudy
5:53 AM 53.1 °F - 48.9 °F 86% 30.06 in 10.0 mi South 12.7 mph - 0.00 in   Overcast
6:53 AM 55.9 °F - 51.1 °F 84% 30.06 in 10.0 mi South 11.5 mph - N/A   Mostly Cloudy
7:53 AM 57.9 °F - 53.1 °F 84% 30.07 in 10.0 mi South 12.7 mph - N/A   Overcast
8:53 AM 59.0 °F - 57.0 °F 93% 30.07 in 10.0 mi South 11.5 mph - 0.01 in Rain Light Rain
9:53 AM 60.1 °F - 57.9 °F 93% 30.07 in 4.0 mi SSW 5.8 mph - 0.05 in Rain Rain
9:56 AM 60.8 °F - 57.2 °F 88% 30.07 in 2.5 mi SW 4.6 mph - 0.01 in Rain Rain
10:04 AM 60.8 °F - 57.2 °F 88% 30.08 in 2.5 mi Variable 3.5 mph - 0.03 in Rain Rain
10:09 AM 60.8 °F - 57.2 °F 88% 30.09 in 3.0 mi West 11.5 mph - 0.03 in Rain Light Rain
10:19 AM 60.8 °F - 59.0 °F 94% 30.08 in 2.5 mi SW 6.9 mph - 0.06 in Rain Rain
10:22 AM 60.8 °F - 59.0 °F 94% 30.08 in 3.0 mi SSW 6.9 mph - 0.06 in Rain Light Rain
10:48 AM 62.6 °F - 60.8 °F 94% 30.08 in 4.0 mi South 6.9 mph - 0.09 in Rain Light Rain
10:53 AM 62.1 °F - 60.1 °F 93% 30.08 in 6.0 mi SSW 8.1 mph - 0.09 in Rain Light Rain
11:13 AM 62.6 °F - 60.8 °F 94% 30.07 in 10.0 mi SW 6.9 mph - 0.00 in   Overcast
11:22 AM 62.6 °F - 60.8 °F 94% 30.07 in 10.0 mi WSW 5.8 mph - 0.00 in   Overcast
12:00 PM 64.4 °F - 60.8 °F 88% 30.06 in 10.0 mi West 6.9 mph - N/A   Overcast
12:28 PM 64.4 °F - 60.8 °F 88% 30.06 in 10.0 mi NNW 16.1 mph 19.6 mph N/A   Overcast
12:53 PM 63.0 °F - 57.9 °F 84% 30.06 in 10.0 mi NW 4.6 mph - N/A   Overcast
1:27 PM 64.4 °F - 57.2 °F 77% 30.05 in 10.0 mi NNW 9.2 mph - N/A   Overcast
1:53 PM 66.9 °F - 57.0 °F 70% 30.05 in 10.0 mi NW 12.7 mph - N/A   Mostly Cloudy
2:53 PM 64.9 °F - 53.1 °F 65% 30.06 in 10.0 mi NW 11.5 mph - N/A   Mostly Cloudy
3:53 PM 64.9 °F - 48.0 °F 54% 30.07 in 10.0 mi NW 11.5 mph - N/A   Clear
4:53 PM 64.0 °F - 48.0 °F 56% 30.08 in 10.0 mi NW 6.9 mph - N/A   Clear
6:53 PM 51.1 °F - 46.9 °F 86% 30.12 in 10.0 mi Calm Calm - N/A   Clear
7:53 PM 51.1 °F - 41.0 °F 68% 30.13 in 10.0 mi NW 5.8 mph - N/A   Clear
8:53 PM 48.9 °F - 39.0 °F 69% 30.15 in 10.0 mi WNW 4.6 mph - N/A   Clear
9:53 PM 46.9 °F - 36.0 °F 66% 30.16 in 10.0 mi NW 3.5 mph - N/A   Clear
10:53 PM 45.0 °F 43.5 °F 34.0 °F 65% 30.17 in 10.0 mi NW 3.5 mph - N/A   Clear
11:53 PM 41.0 °F 37.1 °F 35.1 °F 79% 30.18 in 10.0 mi NW 5.8 mph - N/A   Clear